Regional Weather Roundup
Issued by NWS

Home | Current Version | Previous Version | Graphics & Text | Print | Product List | Glossary On
Versions: 1 2 3 4 5 6 7 8 9 10 11 12 13 14 15 16 17 18 19 20 21 22 23 24 25 26 27 28 29 30 31 32 33 34 35 36 37 38 39 40 41 42 43 44 45 46 47 48 49 50
000
ASUS43 KBIS 211510
RWRND

NORTH DAKOTA REGIONAL WEATHER ROUNDUP
NATIONAL WEATHER SERVICE BISMARCK ND
1000 AM CDT THU AUG 21 2014

NOTE: "FAIR" INDICATES FEW OR NO CLOUDS BELOW 12,000 FEET WITH NO
SIGNIFICANT WEATHER AND/OR OBSTRUCTIONS TO VISIBILITY.


NDZ001>003-009>011-017-211600-
NORTHWEST NORTH DAKOTA

CITY           SKY/WX    TMP DP  RH WIND       PRES   REMARKS
WILLISTON      PTSUNNY   65  61  87 N12       29.92R
MINOT          CLOUDY    66  63  90 NW8       29.83S FOG
MINOT AFB      CLOUDY    67  67  99 NW8       29.83S
$$

NDZ018>021-031>035-040>046-211600-
SOUTHWEST NORTH DAKOTA

CITY           SKY/WX    TMP DP  RH WIND       PRES   REMARKS
BISMARCK       CLOUDY    68  64  87 NW7       29.85R
DICKINSON      PTSUNNY   66  62  87 NW9       29.90R FOG
GARRISON         N/A     68  65  90 NW10      29.85R
HETTINGER ARPT MOSUNNY   69  61  75 NW9       29.92S
$$

NDZ004>008-012>016-024-026-027-054-211600-
NORTHEAST NORTH DAKOTA

CITY           SKY/WX    TMP DP  RH WIND       PRES   REMARKS
GRAND FORKS    CLOUDY    72  66  81 SE7       29.77R
GRND FRKS AFB  CLOUDY    70  69  96 E6        29.78R
DEVILS LAKE    CLOUDY    70  64  83 E8        29.77S
$$

NDZ022-023-025-028>030-036>039-047>053-211600-
SOUTHEAST NORTH DAKOTA

CITY           SKY/WX    TMP DP  RH WIND       PRES   REMARKS
FARGO          CLOUDY    73  67  81 SE6       29.76R
JAMESTOWN      CLOUDY    72  67  84 CALM      29.77R
$$



USA.gov is the U.S. government's official web portal to all federal, state and local government web resources and services.